Rafford, United Kingdom

8:49 AM BST on July 25, 2017 (GMT +0100)
Rafford

Weather History for 03066 - March, 2013

Change the Weather History Date:

Sunday, March 10, 2013

  Actual Average Record
Temperature  
Mean Temperature 31 °F -  
Max Temperature 39 °F 48 °F - ()
Min Temperature 23 °F 36 °F - ()
Degree Days  
Heating Degree Days 34    
Moisture  
Dew Point 23 °F    
Average Humidity 70    
Maximum Humidity 93    
Minimum Humidity 37    
Precipitation  
Precipitation 0.02 in 0.06 in - ()
Sea Level Pressure  
Sea Level Pressure 30.12 in    
Wind  
Wind Speed 13 mph ()    
Max Wind Speed 23 mph    
Max Gust Speed 34 mph    
Visibility 6.2 miles    
Events Snow    
T = Trace of Precipitation, MM = Missing Value Source: Averaged Metar Reports

Daily Weather History Graph

Daily Weather History Graph

Search for Another Location

Airport or City:

Trip Planner

Search our weather history database for the weather conditions in past years. The results will help you decide how hot, cold, wet, or windy it might be!

Date:

Astronomy

Mar. 10, 2013 Rise Set
Actual Time 6:43 AM GMT 6:06 PM GMT
Civil Twilight 6:05 AM GMT 6:45 PM GMT
Nautical Twilight 5:19 AM GMT 7:30 PM GMT
Astronomical Twilight 4:33 AM GMT 8:17 PM GMT
Moon 5:46 AM GMT (3/10) 4:53 PM GMT (3/10)
Length of Visible Light 12h 40m
Length of Day
11h 22m
Waning Crescent, 2% of the Moon is Illuminated
Mar 10
Waning Crescent
Mar 11
New
Mar 19
First Quarter
Mar 27
Full
Apr 3
Last Quarter

Hourly Weather History & Observations

Time (GMT) Temp. Windchill Dew Point Humidity Pressure Visibility Wind Dir Wind Speed Gust Speed Precip Events Conditions
12:50 AM 33.8 °F 22.8 °F 21.2 °F 60% 30.04 in 6.2 mi ENE 18.4 mph - N/A   Scattered Clouds
1:50 AM 33.8 °F 23.5 °F 21.2 °F 60% 30.04 in 6.2 mi ENE 16.1 mph - N/A   Partly Cloudy
2:50 AM 34 °F - 19 °F 40% 30.06 in 28 mi ENE 17.3 mph - -   Scattered Clouds
2:50 AM 33.8 °F 23.2 °F 19.4 °F 56% 30.04 in 6.2 mi ENE 17.3 mph - N/A   Partly Cloudy
3:50 AM 35.6 °F 25.5 °F 17.6 °F 48% 30.04 in 6.2 mi ENE 17.3 mph - N/A   Partly Cloudy
4:50 AM 35.6 °F 25.9 °F 17.6 °F 48% 30.04 in 6.2 mi ENE 16.1 mph - N/A   Mostly Cloudy
5:50 AM 34 °F - 18 °F 38% 30.06 in 31 mi ENE 15.0 mph - -  
5:50 AM 33.8 °F 23.9 °F 17.6 °F 52% 30.06 in 6.2 mi ENE 15.0 mph - N/A   Mostly Cloudy
6:50 AM 33.8 °F 23.9 °F 17.6 °F 52% 30.06 in 6.2 mi ENE 15.0 mph - N/A   Mostly Cloudy
7:50 AM 35.6 °F 24.5 °F 14.0 °F 41% 30.06 in 6.2 mi NE 20.7 mph - N/A   Scattered Clouds
8:50 AM 36 °F - 19 °F 37% 30.09 in 22 mi NE 23.0 mph - - Snow Snow
8:50 AM 35.6 °F 24.0 °F 19.4 °F 52% 30.06 in 6.2 mi NE 23.0 mph 34.5 mph N/A   Mostly Cloudy
9:50 AM 37.4 °F 27.5 °F 19.4 °F 48% 30.06 in 6.2 mi ENE 18.4 mph - N/A   Mostly Cloudy
10:50 AM 37.4 °F 27.8 °F 28.4 °F 70% 30.06 in 6.2 mi NE 17.3 mph - N/A   Scattered Clouds
11:50 AM 38 °F - 32 °F 71% 30.09 in 25 mi East 13.8 mph - -   Unknown Precipitation
11:50 AM 37.4 °F 28.9 °F 32.0 °F 81% 30.06 in 6.2 mi East 13.8 mph - N/A   Scattered Clouds
12:50 PM 35.6 °F 25.5 °F 28.4 °F 75% 30.12 in 6.2 mi East 17.3 mph - N/A   Mostly Cloudy
1:50 PM 32.0 °F 20.8 °F 28.4 °F 87% 30.15 in 6.2 mi East 17.3 mph - N/A   Mostly Cloudy
2:50 PM 35.6 °F 26.6 °F 26.6 °F 70% 30.15 in 6.2 mi East 13.8 mph 26.5 mph N/A   Scattered Clouds
3:50 PM 33.8 °F 24.3 °F 26.6 °F 75% 30.15 in 6.2 mi NE 13.8 mph - N/A Snow Light Snow Showers
4:50 PM 32.0 °F 24.2 °F 26.6 °F 80% 30.15 in 6.2 mi East 9.2 mph - N/A   Mostly Cloudy
5:50 PM 29 °F - 28 °F 92% 30.20 in 0 mi East 17.3 mph - - Snow Heavy Snow Showers
5:50 PM 30.2 °F 18.5 °F 28.4 °F 93% 30.18 in 0.2 mi East 17.3 mph - N/A Snow Heavy Snow Showers
6:50 PM 26.6 °F 21.2 °F 24.8 °F 93% 30.18 in 6.2 mi East 4.6 mph - N/A   Scattered Clouds
7:50 PM 28.4 °F 19.7 °F 26.6 °F 93% 30.18 in 0.7 mi East 9.2 mph - N/A Snow Snow Showers
8:50 PM 25 °F - 23 °F 89% 30.21 in 19 mi East 2.3 mph - - Snow Snow
8:50 PM 24.8 °F - 23.0 °F 93% 30.18 in 6.2 mi East 2.3 mph - N/A   Mostly Cloudy
9:50 PM 23.0 °F 18.4 °F 21.2 °F 93% 30.21 in 6.2 mi East 3.5 mph - N/A   Mostly Cloudy
10:50 PM 26.6 °F 21.2 °F 24.8 °F 93% 30.21 in 0.9 mi ENE 4.6 mph - N/A Snow Light Snow Showers
11:50 PM 26 °F - 24 °F 88% 30.22 in 17 mi SSE 3.5 mph - - Snow Snow
11:50 PM 26.6 °F 22.6 °F 24.8 °F 93% 30.21 in 6.2 mi SSE 3.5 mph - N/A   Mostly Cloudy